DAL1994 KSLC-KRNO

Flight info

Callsign DAL1994
Flight time 0h 58m
Altitude 38000
Route DEZRT2 BAM MYBAD WINRZ1
Aircraft B738/M-SDE2E3FGHIRWXY/LB1

Departure

Time 2026-05-06 15:15
Airport Salt Lake City International Airport (KSLC)

Arrival

Time 2026-05-06 16:14
Airport Reno Tahoe International Airport (KRNO)
Time Latitude Longitude Altitude Speed Heading
2026-05-06 14:52 40.78840 -111.98613 4230 ft 0 kts 355°
2026-05-06 15:05 40.78821 -111.98612 4229 ft 4 kts
2026-05-06 15:05 40.78795 -111.98619 4229 ft 4 kts 27°
2026-05-06 15:06 40.78774 -111.98639 4228 ft 4 kts 56°
2026-05-06 15:06 40.78764 -111.98671 4228 ft 4 kts 82°
2026-05-06 15:06 40.78763 -111.98678 4228 ft 0 kts 85°
2026-05-06 15:09 40.78741 -111.98657 4229 ft 9 kts 185°
2026-05-06 15:09 40.78702 -111.98733 4230 ft 11 kts 251°
2026-05-06 15:09 40.78687 -111.98829 4230 ft 10 kts 257°
2026-05-06 15:10 40.78679 -111.98923 4230 ft 10 kts 264°
2026-05-06 15:10 40.78672 -111.99014 4230 ft 10 kts 264°
2026-05-06 15:10 40.78665 -111.99115 4230 ft 12 kts 265°
2026-05-06 15:10 40.78657 -111.99240 4230 ft 16 kts 265°
2026-05-06 15:11 40.78646 -111.99404 4230 ft 19 kts 255°
2026-05-06 15:11 40.78533 -111.99450 4230 ft 18 kts 175°
2026-05-06 15:11 40.78413 -111.99417 4230 ft 17 kts 165°
2026-05-06 15:11 40.78294 -111.99422 4230 ft 17 kts 178°
2026-05-06 15:12 40.78182 -111.99410 4230 ft 16 kts 174°
2026-05-06 15:12 40.78072 -111.99416 4230 ft 16 kts 191°
2026-05-06 15:12 40.77968 -111.99435 4257 ft 15 kts 179°
2026-05-06 15:12 40.77867 -111.99427 4258 ft 14 kts 176°
2026-05-06 15:13 40.77770 -111.99416 4257 ft 14 kts 174°
2026-05-06 15:13 40.77678 -111.99404 4257 ft 13 kts 175°
2026-05-06 15:13 40.77588 -111.99393 4257 ft 13 kts 177°
2026-05-06 15:13 40.77525 -111.99455 4258 ft 12 kts 257°
2026-05-06 15:14 40.77551 -111.99549 4259 ft 12 kts 337°
2026-05-06 15:14 40.77642 -111.99563 4260 ft 24 kts 354°
2026-05-06 15:14 40.78055 -111.99614 4255 ft 93 kts 355°
2026-05-06 15:14 40.78900 -111.99716 4234 ft 149 kts 354°
2026-05-06 15:15 40.80001 -111.99895 4644 ft 165 kts 352°
2026-05-06 15:15 40.81193 -112.00080 5244 ft 185 kts 353°
2026-05-06 15:15 40.82418 -112.00828 5606 ft 209 kts 314°
2026-05-06 15:15 40.83015 -112.02653 5818 ft 236 kts 280°
2026-05-06 15:16 40.83181 -112.04888 6205 ft 250 kts 276°
2026-05-06 15:16 40.83357 -112.07265 6532 ft 270 kts 276°
2026-05-06 15:16 40.83567 -112.09749 7229 ft 276 kts 278°
2026-05-06 15:16 40.83802 -112.12272 8174 ft 276 kts 281°
2026-05-06 15:17 40.84049 -112.14790 9138 ft 275 kts 283°
2026-05-06 15:17 40.84312 -112.17314 9735 ft 277 kts 284°
2026-05-06 15:17 40.84585 -112.19848 9983 ft 280 kts 285°
2026-05-06 15:17 40.84866 -112.22407 10006 ft 283 kts 285°
2026-05-06 15:18 40.85163 -112.25061 10194 ft 304 kts 284°
2026-05-06 15:18 40.85479 -112.27885 10581 ft 321 kts 284°
2026-05-06 15:18 40.85801 -112.30838 11289 ft 326 kts 284°
2026-05-06 15:18 40.86122 -112.33812 12109 ft 329 kts 285°
2026-05-06 15:19 40.86448 -112.36819 12909 ft 332 kts 285°
2026-05-06 15:19 40.86778 -112.39856 13678 ft 336 kts 285°
2026-05-06 15:19 40.87095 -112.42949 14365 ft 342 kts 283°
2026-05-06 15:19 40.87094 -112.46119 14975 ft 356 kts 273°
2026-05-06 15:20 40.86845 -112.49406 15648 ft 361 kts 272°
2026-05-06 15:20 40.86597 -112.52734 16329 ft 365 kts 272°
2026-05-06 15:20 40.86363 -112.56098 16989 ft 369 kts 273°
2026-05-06 15:20 40.86128 -112.59452 17639 ft 374 kts 272°
2026-05-06 15:21 40.85856 -112.62903 18284 ft 379 kts 272°
2026-05-06 15:21 40.85568 -112.66385 18850 ft 383 kts 271°
2026-05-06 15:21 40.85274 -112.69917 19445 ft 386 kts 271°
2026-05-06 15:21 40.84980 -112.73463 20039 ft 389 kts 271°
2026-05-06 15:22 40.84690 -112.76989 20599 ft 393 kts 271°
2026-05-06 15:22 40.84394 -112.80596 21151 ft 396 kts 271°
2026-05-06 15:22 40.84124 -112.84224 21719 ft 397 kts 274°
2026-05-06 15:22 40.84041 -112.87883 22218 ft 399 kts 277°
2026-05-06 15:23 40.84064 -112.91567 22750 ft 401 kts 278°
2026-05-06 15:23 40.84117 -112.95265 23285 ft 404 kts 279°
2026-05-06 15:23 40.84170 -112.98990 23785 ft 408 kts 278°
2026-05-06 15:23 40.84210 -113.02749 24210 ft 411 kts 278°
2026-05-06 15:24 40.84237 -113.06498 24651 ft 414 kts 278°
2026-05-06 15:24 40.84254 -113.10322 25082 ft 416 kts 278°
2026-05-06 15:24 40.84264 -113.14163 25456 ft 420 kts 278°
2026-05-06 15:24 40.84271 -113.18036 25854 ft 423 kts 278°
2026-05-06 15:25 40.84275 -113.21935 26266 ft 426 kts 278°
2026-05-06 15:25 40.84277 -113.25859 26674 ft 428 kts 278°
2026-05-06 15:25 40.84278 -113.29802 27065 ft 431 kts 278°
2026-05-06 15:25 40.84278 -113.33720 27440 ft 433 kts 278°
2026-05-06 15:26 40.84277 -113.37721 27820 ft 436 kts 278°
2026-05-06 15:26 40.84275 -113.41741 28179 ft 439 kts 278°
2026-05-06 15:26 40.84271 -113.45784 28511 ft 442 kts 278°
2026-05-06 15:26 40.84266 -113.49861 28880 ft 444 kts 278°
2026-05-06 15:27 40.84259 -113.53945 29220 ft 447 kts 278°
2026-05-06 15:27 40.84251 -113.58070 29551 ft 449 kts 278°
2026-05-06 15:27 40.84241 -113.62209 29903 ft 452 kts 278°
2026-05-06 15:27 40.84230 -113.66373 30207 ft 454 kts 278°
2026-05-06 15:28 40.84217 -113.70564 30472 ft 457 kts 278°
2026-05-06 15:28 40.84202 -113.74710 30731 ft 459 kts 278°
2026-05-06 15:28 40.84187 -113.78929 30975 ft 460 kts 277°
2026-05-06 15:28 40.84169 -113.83218 31254 ft 462 kts 277°
2026-05-06 15:29 40.84148 -113.87412 31523 ft 463 kts 277°
2026-05-06 15:29 40.84124 -113.91667 31861 ft 463 kts 277°
2026-05-06 15:29 40.84096 -113.95916 32255 ft 462 kts 277°
2026-05-06 15:29 40.84067 -114.00156 32619 ft 461 kts 277°
2026-05-06 15:30 40.84037 -114.04389 32942 ft 461 kts 277°
2026-05-06 15:30 40.84007 -114.08622 33229 ft 461 kts 277°
2026-05-06 15:30 40.83975 -114.12851 33613 ft 459 kts 277°
2026-05-06 15:30 40.83941 -114.17064 33969 ft 458 kts 277°
2026-05-06 15:31 40.83907 -114.21289 34254 ft 458 kts 277°
2026-05-06 15:31 40.83871 -114.25450 34531 ft 458 kts 277°
2026-05-06 15:31 40.83834 -114.29652 34841 ft 456 kts 277°
2026-05-06 15:32 40.83754 -114.38015 35402 ft 455 kts 277°
2026-05-06 15:32 40.83712 -114.42184 35625 ft 454 kts 277°
2026-05-06 15:32 40.83669 -114.46357 35882 ft 453 kts 277°
2026-05-06 15:32 40.83625 -114.50512 36155 ft 452 kts 277°
2026-05-06 15:33 40.83579 -114.54665 36413 ft 452 kts 277°
2026-05-06 15:33 40.83531 -114.58810 36633 ft 451 kts 277°
2026-05-06 15:33 40.83483 -114.62954 36847 ft 451 kts 277°
2026-05-06 15:33 40.83434 -114.67090 37111 ft 450 kts 277°
2026-05-06 15:34 40.83382 -114.71216 37383 ft 448 kts 277°
2026-05-06 15:34 40.83309 -114.75339 37623 ft 450 kts 275°
2026-05-06 15:34 40.82985 -114.79478 37808 ft 455 kts 270°
2026-05-06 15:34 40.82520 -114.83574 38014 ft 456 kts 269°
2026-05-06 15:35 40.82004 -114.87724 38119 ft 458 kts 269°
2026-05-06 15:35 40.81485 -114.91885 38110 ft 460 kts 269°
2026-05-06 15:35 40.80490 -115.00157 38104 ft 456 kts 269°
2026-05-06 15:36 40.79537 -115.08403 38107 ft 451 kts 269°
2026-05-06 15:36 40.78600 -115.16578 38118 ft 448 kts 270°
2026-05-06 15:37 40.77666 -115.24672 38117 ft 448 kts 269°
2026-05-06 15:37 40.76721 -115.32811 38125 ft 448 kts 269°
2026-05-06 15:38 40.75767 -115.40933 38113 ft 450 kts 269°
2026-05-06 15:38 40.74799 -115.49112 38117 ft 452 kts 269°
2026-05-06 15:39 40.73824 -115.57306 38125 ft 454 kts 269°
2026-05-06 15:39 40.72840 -115.65521 38094 ft 456 kts 268°
2026-05-06 15:40 40.71843 -115.73797 38117 ft 457 kts 268°
2026-05-06 15:40 40.71007 -115.80689 38117 ft 458 kts 268°
2026-05-06 15:41 40.69992 -115.89015 38128 ft 459 kts 268°
2026-05-06 15:41 40.68977 -115.97300 38098 ft 460 kts 268°
2026-05-06 15:42 40.67949 -116.05632 38111 ft 460 kts 268°
2026-05-06 15:42 40.66921 -116.13911 38111 ft 459 kts 268°
2026-05-06 15:43 40.65882 -116.22228 38114 ft 459 kts 268°
2026-05-06 15:43 40.64846 -116.30473 38107 ft 457 kts 267°
2026-05-06 15:44 40.63801 -116.38745 38102 ft 456 kts 267°
2026-05-06 15:44 40.62754 -116.46982 38128 ft 455 kts 267°
2026-05-06 15:45 40.61709 -116.55160 38151 ft 454 kts 267°
2026-05-06 15:45 40.60655 -116.63358 38173 ft 453 kts 267°
2026-05-06 15:46 40.59603 -116.71491 38191 ft 452 kts 267°
2026-05-06 15:46 40.58542 -116.79655 38217 ft 452 kts 267°
2026-05-06 15:47 40.57480 -116.87790 38197 ft 453 kts 267°
2026-05-06 15:47 40.56423 -116.95977 38215 ft 453 kts 268°
2026-05-06 15:48 40.55451 -117.04164 38193 ft 453 kts 268°
2026-05-06 15:48 40.54492 -117.12327 38176 ft 454 kts 268°
2026-05-06 15:49 40.53509 -117.20573 37797 ft 458 kts 267°
2026-05-06 15:49 40.53018 -117.24637 37505 ft 453 kts 267°
2026-05-06 15:49 40.52520 -117.28714 37323 ft 442 kts 267°
2026-05-06 15:50 40.51546 -117.36681 37337 ft 444 kts 267°
2026-05-06 15:50 40.50566 -117.44741 37340 ft 453 kts 267°
2026-05-06 15:51 40.49551 -117.53004 37030 ft 463 kts 266°
2026-05-06 15:51 40.49031 -117.57187 36790 ft 462 kts 266°
2026-05-06 15:51 40.48511 -117.61345 36534 ft 459 kts 266°
2026-05-06 15:52 40.48001 -117.65416 36281 ft 455 kts 266°
2026-05-06 15:52 40.47487 -117.69521 36031 ft 455 kts 266°
2026-05-06 15:52 40.46971 -117.73647 35780 ft 456 kts 266°
2026-05-06 15:52 40.46454 -117.77761 35424 ft 455 kts 266°
2026-05-06 15:53 40.45943 -117.81817 34810 ft 457 kts 266°
2026-05-06 15:53 40.45423 -117.85941 34235 ft 457 kts 266°
2026-05-06 15:53 40.44900 -117.90073 33541 ft 458 kts 266°
2026-05-06 15:53 40.44373 -117.94214 32860 ft 459 kts 266°
2026-05-06 15:54 40.43844 -117.98355 32191 ft 459 kts 266°
2026-05-06 15:54 40.43322 -118.02435 31640 ft 457 kts 265°
2026-05-06 15:54 40.42796 -118.06509 31382 ft 447 kts 265°
2026-05-06 15:54 40.42275 -118.10549 31131 ft 452 kts 265°
2026-05-06 15:55 40.41746 -118.14684 30904 ft 462 kts 265°
2026-05-06 15:55 40.41206 -118.18881 30661 ft 468 kts 265°
2026-05-06 15:55 40.40658 -118.23097 30422 ft 468 kts 265°
2026-05-06 15:55 40.40115 -118.27251 30089 ft 466 kts 265°
2026-05-06 15:56 40.39566 -118.31447 29250 ft 466 kts 265°
2026-05-06 15:56 40.38886 -118.35605 28596 ft 466 kts 257°
2026-05-06 15:56 40.37756 -118.39578 28128 ft 463 kts 249°
2026-05-06 15:56 40.36186 -118.43251 27655 ft 460 kts 242°
2026-05-06 15:57 40.34477 -118.46786 27105 ft 456 kts 241°
2026-05-06 15:57 40.32794 -118.50298 26554 ft 452 kts 242°
2026-05-06 15:57 40.31182 -118.53744 26017 ft 449 kts 242°
2026-05-06 15:57 40.29560 -118.57255 25474 ft 445 kts 242°
2026-05-06 15:58 40.27963 -118.60712 24927 ft 443 kts 242°
2026-05-06 15:58 40.26377 -118.64179 24373 ft 440 kts 244°
2026-05-06 15:58 40.24936 -118.67660 23802 ft 438 kts 246°
2026-05-06 15:58 40.23553 -118.71203 23184 ft 436 kts 246°
2026-05-06 15:59 40.22198 -118.74741 22538 ft 434 kts 247°
2026-05-06 15:59 40.20841 -118.78279 21871 ft 433 kts 246°
2026-05-06 15:59 40.19482 -118.81792 21318 ft 430 kts 246°
2026-05-06 15:59 40.18120 -118.85282 20767 ft 427 kts 246°
2026-05-06 16:00 40.16780 -118.88696 20238 ft 424 kts 246°
2026-05-06 16:00 40.15427 -118.92130 19705 ft 421 kts 246°
2026-05-06 16:00 40.14101 -118.95491 19164 ft 420 kts 246°
2026-05-06 16:00 40.12762 -118.98879 18635 ft 417 kts 246°
2026-05-06 16:01 40.11425 -119.02260 18046 ft 416 kts 246°
2026-05-06 16:01 40.10099 -119.05612 17493 ft 413 kts 245°
2026-05-06 16:01 40.08783 -119.08935 16956 ft 410 kts 245°
2026-05-06 16:01 40.07493 -119.12188 16440 ft 407 kts 245°
2026-05-06 16:02 40.06193 -119.15463 15926 ft 403 kts 245°
2026-05-06 16:02 40.04903 -119.18704 15420 ft 400 kts 245°
2026-05-06 16:02 40.03624 -119.21915 14888 ft 397 kts 245°
2026-05-06 16:02 40.02350 -119.25109 14392 ft 394 kts 245°
2026-05-06 16:03 40.01102 -119.28235 13883 ft 391 kts 245°
2026-05-06 16:03 39.99857 -119.31355 13636 ft 380 kts 245°
2026-05-06 16:03 39.98655 -119.34360 13449 ft 368 kts 245°
2026-05-06 16:03 39.97483 -119.37289 13279 ft 357 kts 245°
2026-05-06 16:04 39.96352 -119.40116 13129 ft 347 kts 245°
2026-05-06 16:04 39.95247 -119.42871 12971 ft 337 kts 245°
2026-05-06 16:04 39.94192 -119.45497 12838 ft 327 kts 245°
2026-05-06 16:04 39.93063 -119.48055 12517 ft 325 kts 240°
2026-05-06 16:05 39.91854 -119.50532 12213 ft 322 kts 239°
2026-05-06 16:05 39.90651 -119.52975 11901 ft 319 kts 240°
2026-05-06 16:05 39.89463 -119.55413 11606 ft 317 kts 240°
2026-05-06 16:05 39.88297 -119.57827 11304 ft 312 kts 240°
2026-05-06 16:06 39.87154 -119.60185 11024 ft 305 kts 238°
2026-05-06 16:06 39.85706 -119.62180 10702 ft 301 kts 218°
2026-05-06 16:06 39.84050 -119.63740 10423 ft 293 kts 217°
2026-05-06 16:06 39.82406 -119.65270 10121 ft 286 kts 217°
2026-05-06 16:07 39.80807 -119.66768 9817 ft 279 kts 217°
2026-05-06 16:07 39.79283 -119.68210 9723 ft 261 kts 218°
2026-05-06 16:07 39.77862 -119.69558 9579 ft 243 kts 218°
2026-05-06 16:07 39.76544 -119.70815 9186 ft 239 kts 218°
2026-05-06 16:08 39.75222 -119.72078 8864 ft 231 kts 218°
2026-05-06 16:08 39.73947 -119.73296 8599 ft 222 kts 218°
2026-05-06 16:08 39.72741 -119.74447 8365 ft 209 kts 218°
2026-05-06 16:08 39.71596 -119.75540 8141 ft 199 kts 218°
2026-05-06 16:09 39.70451 -119.76464 7964 ft 190 kts 197°
2026-05-06 16:09 39.69194 -119.76656 7930 ft 182 kts 181°
2026-05-06 16:09 39.67894 -119.76643 7690 ft 186 kts 180°
2026-05-06 16:09 39.66643 -119.76635 7488 ft 171 kts 180°
2026-05-06 16:10 39.65488 -119.76637 7224 ft 165 kts 180°
2026-05-06 16:10 39.64329 -119.76639 7009 ft 169 kts 181°
2026-05-06 16:10 39.63137 -119.76644 6801 ft 175 kts 181°
2026-05-06 16:10 39.61909 -119.76647 6554 ft 175 kts 181°
2026-05-06 16:11 39.60719 -119.76650 6307 ft 171 kts 180°
2026-05-06 16:11 39.59548 -119.76652 6062 ft 165 kts 180°
2026-05-06 16:11 39.58401 -119.76655 5862 ft 164 kts 181°
2026-05-06 16:11 39.57441 -119.76658 5682 ft 164 kts 181°
2026-05-06 16:12 39.57114 -119.76658 5617 ft 164 kts 181°
2026-05-06 16:12 39.55970 -119.76664 5403 ft 163 kts 180°
2026-05-06 16:12 39.54851 -119.76682 5226 ft 159 kts 180°
2026-05-06 16:12 39.53754 -119.76680 5038 ft 156 kts 179°
2026-05-06 16:13 39.52670 -119.76678 4833 ft 155 kts 180°
2026-05-06 16:13 39.51591 -119.76679 4603 ft 156 kts 180°
2026-05-06 16:13 39.50547 -119.76678 4521 ft 136 kts 180°
2026-05-06 16:13 39.49789 -119.76672 4523 ft 65 kts 179°
2026-05-06 16:14 39.49565 -119.76703 4524 ft 22 kts 199°
2026-05-06 16:14 39.49431 -119.76799 4523 ft 22 kts 211°
2026-05-06 16:14 39.49323 -119.76921 4522 ft 21 kts 240°
2026-05-06 16:14 39.49291 -119.77042 4521 ft 11 kts 292°
2026-05-06 16:15 39.49358 -119.77075 4520 ft 11 kts
2026-05-06 16:15 39.49431 -119.77074 4520 ft 10 kts 359°
2026-05-06 16:15 39.49502 -119.77073 4520 ft 10 kts
2026-05-06 16:15 39.49586 -119.77072 4520 ft 14 kts
2026-05-06 16:16 39.49683 -119.77074 4520 ft 14 kts 358°
2026-05-06 16:16 39.49775 -119.77078 4520 ft 13 kts
2026-05-06 16:16 39.49863 -119.77072 4520 ft 13 kts
2026-05-06 16:16 39.49950 -119.77070 4520 ft 12 kts
2026-05-06 16:17 39.50035 -119.77069 4521 ft 12 kts
2026-05-06 16:17 39.50117 -119.77069 4521 ft 12 kts 359°
2026-05-06 16:17 39.50198 -119.77070 4522 ft 11 kts
2026-05-06 16:17 39.50276 -119.77070 4522 ft 11 kts 360°
2026-05-06 16:18 39.50352 -119.77070 4521 ft 11 kts 360°
2026-05-06 16:18 39.50426 -119.77070 4521 ft 10 kts
2026-05-06 16:18 39.50498 -119.77069 4521 ft 10 kts
2026-05-06 16:18 39.50566 -119.77073 4521 ft 10 kts 342°
2026-05-06 16:19 39.50588 -119.77141 4524 ft 10 kts 232°
2026-05-06 16:19 39.50541 -119.77180 4523 ft 4 kts 217°
2026-05-06 16:19 39.50528 -119.77207 4524 ft 3 kts 243°
2026-05-06 16:19 39.50522 -119.77222 4522 ft 0 kts 244°